Houston Intercontinental

Airport
ICAO code: 
KIAH
Summary
ICAO Region: 
NAM
Territory: 
Location: 
Houston, Texas,
Elevation: 
97 ft
Coordinates: 
Aerial View: 
29° 59' 3.839" N, 95° 20' 29.041" W
Airport LOS: 
Parallel Runway Operation
Airport WX: 
Tropical Revolving Storm
Metar
Observation
KIAH 020153Z 11008KT 10SM FEW020 FEW035 BKN250 27/24 A2990 RMK AO2 SLP125 T02670239
Station
Houston, Houston Intercontinental Airport
Date/Time
2022-07-02 01:53:00
Wind direction
110°
Wind speed
08 kts
Lowest cloud amount
few clouds
Temperature
26.7°C
Dew point
23.9°C
Humidity
84%
Weather condition
n/a

Description

International airport serving Houston Texas.

Climatology

Humid “subtropical” climate (Köppen climate classification Cfa) - characterized by hot, humid summers and cool winters. Significant amounts of precipitation occur in all seasons in most areas. Winter rainfall (and sometimes snowfall) is associated with large storms that the westerlies steer from west to east. Most summer rainfall occurs during thunderstorms and occasional tropical storms (hurricanes).

Runways

Designator Length Width Surface Rops
08L/26R 2743 46 CON Yes/Yes
08R/26L 2866 46 CON Yes/Yes
9/27 3048 46 ASP Yes/Yes
15R/33L 3048 46 CON Yes/Yes
15L/33R 3658 46 CON Yes/Yes
Airport map: 
Aerial View: 

Accidents and Serious Incidents at or in the vicinity of KIAH

SKYbrary Partners:

Safety knowledge contributed by: